Location: Chippewa Lake
(41.0698°N, 81.9010°W)
Time: 02:08:31
(UTC+00:00)

ATLAS 5 CENTAUR R/B - Pass Details

Date: 09 May 2021
Orbit: 512 x 1146 km, 63.3° (Epoch: 24 June)

Event Time Altitude Azimuth Distance (km) Brightness Sun altitude
Rises 00:57:25 0° 334° (NNW) 3,176 6.2 -5.1°
Reaches altitude 10° 01:00:14 10° 351° (N) 2,365 5.1 -5.6°
Maximum altitude 01:04:24 21° 40° (NE) 1,847 3.9 -6.2°
Drops below altitude 10° 01:09:04 10° 89° (E) 2,693 4.3 -7.0°
Enters shadow 01:10:34 - 96° (E) 3,134 4.6 -7.3°
